| time (UTC) | temp C | wind direction | speed KPH | gust KPH | rain 1hr cm | rain 24hr cm | rain mn cm | humidity % | barometer mb |
| 20260904214600 | 28 | 5 | 0.0 | 3.2 | 0.00 | 0.43 | 0.43 | 72 | 1012.9 |
| 20260904214034 | 28 | 0 | 0.0 | 0.0 | 0.00 | 0.43 | 0.43 | 73 | 1012.9 |
| 20260904213537 | 28 | 0 | 0.0 | 1.6 | 0.00 | 0.43 | 0.43 | 74 | 1012.7 |
| 20260904213110 | 28 | 0 | 0.0 | 3.2 | 0.00 | 0.43 | 0.43 | 76 | 1012.4 |
| 20260904212538 | 28 | 0 | 0.0 | 3.2 | 0.00 | 0.43 | 0.43 | 75 | 1012.4 |
| 20260904212038 | 28 | 258 | 0.0 | 4.8 | 0.00 | 0.43 | 0.43 | 75 | 1012.0 |
| 20260904211609 | 28 | 0 | 0.0 | 9.7 | 0.00 | 0.43 | 0.43 | 76 | 1011.8 |
| 20260904211037 | 28 | 0 | 1.6 | 9.7 | 0.00 | 0.43 | 0.43 | 77 | 1012.0 |
| 20260904210538 | 29 | 352 | 1.6 | 4.8 | 0.00 | 0.43 | 0.43 | 80 | 1012.0 |
| 20260904205538 | 29 | 0 | 0.0 | 0.0 | 0.00 | 0.43 | 0.43 | 80 | 1011.4 |
| 20260904205037 | 29 | 0 | 0.0 | 0.0 | 0.00 | 0.43 | 0.43 | 80 | 1011.3 |
| 20260904204556 | 29 | 0 | 0.0 | 0.0 | 0.00 | 0.43 | 0.43 | 78 | 1011.3 |
| 20260904204037 | 30 | 0 | 0.0 | 0.0 | 0.00 | 0.43 | 0.43 | 79 | 1011.5 |
| 20260904203536 | 30 | 0 | 0.0 | 0.0 | 0.00 | 0.43 | 0.43 | 80 | 1011.6 |
| 20260904203103 | 30 | 0 | 0.0 | 0.0 | 0.00 | 0.43 | 0.43 | 75 | 1011.6 |
| 20260904202537 | 30 | 0 | 0.0 | 0.0 | 0.00 | 0.43 | 0.43 | 75 | 1011.5 |
| 20260904202037 | 30 | 0 | 0.0 | 0.0 | 0.00 | 0.43 | 0.43 | 75 | 1011.3 |
| 20260904201606 | 30 | 0 | 0.0 | 0.0 | 0.00 | 0.43 | 0.43 | 75 | 1011.5 |
| 20260904201038 | 31 | 0 | 0.0 | 0.0 | 0.00 | 0.43 | 0.43 | 73 | 1011.4 |
| 20260904200538 | 31 | 0 | 0.0 | 0.0 | 0.00 | 0.43 | 0.43 | 72 | 1011.2 |
| 20260904200122 | 31 | 0 | 0.0 | 0.0 | 0.00 | 0.43 | 0.43 | 71 | 1010.6 |
| 20260904195538 | 32 | 0 | 0.0 | 0.0 | 0.00 | 0.43 | 0.43 | 67 | 1010.9 |
| 20260904195039 | 32 | 0 | 0.0 | 0.0 | 0.00 | 0.43 | 0.43 | 68 | 1011.1 |
| 20260904194634 | 32 | 0 | 0.0 | 0.0 | 0.00 | 0.43 | 0.43 | 63 | 1011.4 |
| 20260904194038 | 33 | 0 | 0.0 | 1.6 | 0.00 | 0.43 | 0.43 | 61 | 1011.7 |
| 20260904193538 | 33 | 0 | 0.0 | 3.2 | 0.00 | 0.43 | 0.43 | 60 | 1011.7 |
| 20260904193103 | 33 | 0 | 0.0 | 4.8 | 0.00 | 0.43 | 0.43 | 59 | 1011.8 |
| 20260904192537 | 34 | 338 | 0.0 | 4.8 | 0.00 | 0.43 | 0.43 | 57 | 1011.7 |
| 20260904192038 | 35 | 274 | 0.0 | 4.8 | 0.00 | 0.43 | 0.43 | 57 | 1011.6 |
| 20260904191619 | 35 | 0 | 1.6 | 4.8 | 0.00 | 0.43 | 0.43 | 56 | 1011.8 |
| 20260904191040 | 35 | 47 | 1.6 | 8.0 | 0.00 | 0.43 | 0.43 | 54 | 1011.7 |
| 20260904190538 | 35 | 192 | 1.6 | 8.0 | 0.00 | 0.43 | 0.43 | 55 | 1011.7 |
| 20260904190058 | 35 | 212 | 1.6 | 8.0 | 0.00 | 0.43 | 0.43 | 53 | 1011.7 |
| 20260904185538 | 35 | 230 | 0.0 | 4.8 | 0.00 | 0.43 | 0.43 | 54 | 1011.7 |
| 20260904185038 | 35 | 0 | 0.0 | 4.8 | 0.00 | 0.43 | 0.43 | 55 | 1011.9 |
| 20260904184610 | 35 | 0 | 1.6 | 4.8 | 0.00 | 0.43 | 0.43 | 55 | 1011.9 |
| 20260904184038 | 35 | 0 | 1.6 | 4.8 | 0.00 | 0.43 | 0.43 | 55 | 1012.1 |
| 20260904183537 | 34 | 166 | 0.0 | 3.2 | 0.00 | 0.43 | 0.43 | 55 | 1012.2 |
| 20260904183100 | 34 | 179 | 0.0 | 1.6 | 0.00 | 0.43 | 0.43 | 57 | 1012.3 |
| 20260904182537 | 33 | 0 | 0.0 | 1.6 | 0.00 | 0.43 | 0.43 | 60 | 1012.4 |
| 20260904182036 | 33 | 0 | 0.0 | 4.8 | 0.00 | 0.43 | 0.43 | 60 | 1012.4 |
| 20260904181558 | 33 | 0 | 0.0 | 4.8 | 0.00 | 0.43 | 0.43 | 59 | 1012.5 |
| 20260904181037 | 33 | 352 | 1.6 | 4.8 | 0.00 | 0.43 | 0.43 | 58 | 1012.5 |
| 20260904180538 | 34 | 360 | 0.0 | 8.0 | 0.00 | 0.43 | 0.43 | 59 | 1012.6 |
| 20260904180105 | 34 | 304 | 1.6 | 8.0 | 0.00 | 0.43 | 0.43 | 56 | 1012.7 |
| 20260904175540 | 34 | 258 | 1.6 | 6.4 | 0.00 | 0.43 | 0.43 | 56 | 1012.8 |
| 20260904175037 | 34 | 269 | 0.0 | 6.4 | 0.00 | 0.43 | 0.43 | 58 | 1012.9 |
| 20260904174605 | 33 | 240 | 1.6 | 4.8 | 0.00 | 0.43 | 0.43 | 60 | 1012.9 |
| 20260904174037 | 33 | 0 | 0.0 | 4.8 | 0.00 | 0.43 | 0.43 | 60 | 1012.9 |
| 20260904173537 | 33 | 0 | 0.0 | 4.8 | 0.00 | 0.43 | 0.43 | 61 | 1013.0 |
| 20260904173106 | 32 | 170 | 0.0 | 3.2 | 0.00 | 0.43 | 0.43 | 61 | 1013.0 |
| 20260904172537 | 32 | 0 | 0.0 | 4.8 | 0.00 | 0.43 | 0.43 | 61 | 1013.1 |
| 20260904172038 | 32 | 13 | 1.6 | 4.8 | 0.00 | 0.43 | 0.43 | 59 | 1013.1 |
| 20260904171556 | 32 | 348 | 0.0 | 4.8 | 0.00 | 0.43 | 0.43 | 62 | 1013.1 |
| 20260904171037 | 32 | 350 | 1.6 | 4.8 | 0.00 | 0.43 | 0.43 | 62 | 1013.1 |
| 20260904170538 | 32 | 0 | 0.0 | 4.8 | 0.00 | 0.43 | 0.43 | 63 | 1013.1 |
| 20260904165541 | 32 | 303 | 0.0 | 4.8 | 0.00 | 0.43 | 0.43 | 64 | 1013.2 |
| 20260904165037 | 32 | 346 | 1.6 | 4.8 | 0.00 | 0.43 | 0.43 | 63 | 1013.3 |
| 20260904164600 | 32 | 0 | 0.0 | 4.8 | 0.00 | 0.43 | 0.43 | 65 | 1013.4 |
| 20260904164037 | 32 | 0 | 0.0 | 9.7 | 0.00 | 0.43 | 0.43 | 63 | 1013.4 |
| 20260904163537 | 32 | 352 | 3.2 | 9.7 | 0.00 | 0.43 | 0.43 | 63 | 1013.5 |
| 20260904163056 | 32 | 329 | 0.0 | 4.8 | 0.00 | 0.43 | 0.43 | 63 | 1013.5 |
| 20260904162537 | 32 | 0 | 1.6 | 4.8 | 0.00 | 0.43 | 0.43 | 62 | 1013.6 |
| 20260904162038 | 32 | 311 | 1.6 | 4.8 | 0.00 | 0.43 | 0.43 | 61 | 1013.6 |
| 20260904161555 | 32 | 337 | 0.0 | 3.2 | 0.00 | 0.43 | 0.43 | 66 | 1013.7 |
| 20260904161038 | 31 | 322 | 0.0 | 1.6 | 0.00 | 0.43 | 0.43 | 64 | 1013.7 |
| 20260904160541 | 31 | 0 | 0.0 | 4.8 | 0.00 | 0.43 | 0.43 | 65 | 1013.8 |
| 20260904160106 | 31 | 0 | 0.0 | 4.8 | 0.00 | 0.43 | 0.43 | 66 | 1013.7 |
| 20260904155534 | 31 | 322 | 0.0 | 4.8 | 0.00 | 0.43 | 0.43 | 66 | 1013.7 |
| 20260904155037 | 31 | 351 | 1.6 | 4.8 | 0.00 | 0.43 | 0.43 | 65 | 1013.6 |
| 20260904154620 | 31 | 350 | 0.0 | 4.8 | 0.00 | 0.43 | 0.43 | 67 | 1013.8 |
| 20260904154038 | 30 | 181 | 0.0 | 4.8 | 0.00 | 0.43 | 0.43 | 67 | 1013.7 |
| 20260904153538 | 30 | 306 | 0.0 | 6.4 | 0.00 | 0.43 | 0.43 | 71 | 1013.8 |
| 20260904153102 | 30 | 351 | 1.6 | 6.4 | 0.00 | 0.43 | 0.43 | 69 | 1013.8 |
| 20260904152538 | 30 | 350 | 1.6 | 6.4 | 0.00 | 0.43 | 0.43 | 68 | 1013.8 |
| 20260904152037 | 30 | 0 | 0.0 | 3.2 | 0.00 | 0.43 | 0.43 | 72 | 1013.8 |
| 20260904151608 | 29 | 334 | 0.0 | 3.2 | 0.00 | 0.43 | 0.43 | 74 | 1013.8 |
| 20260904151037 | 29 | 331 | 0.0 | 3.2 | 0.00 | 0.43 | 0.43 | 74 | 1013.8 |
| 20260904150539 | 29 | 346 | 0.0 | 3.2 | 0.00 | 0.43 | 0.43 | 73 | 1013.9 |
| 20260904150104 | 29 | 0 | 0.0 | 4.8 | 0.00 | 0.43 | 0.43 | 75 | 1014.0 |
| 20260904145538 | 29 | 0 | 0.0 | 4.8 | 0.00 | 0.43 | 0.43 | 76 | 1014.0 |
| 20260904145038 | 28 | 0 | 0.0 | 4.8 | 0.00 | 0.43 | 0.43 | 75 | 1013.9 |
| 20260904144601 | 28 | 0 | 0.0 | 0.0 | 0.00 | 0.43 | 0.43 | 76 | 1014.0 |
| 20260904144040 | 28 | 0 | 0.0 | 0.0 | 0.00 | 0.43 | 0.43 | 79 | 1014.1 |
| 20260904143539 | 28 | 0 | 0.0 | 0.0 | 0.00 | 0.43 | 0.43 | 80 | 1014.1 |
| 20260904143058 | 27 | 0 | 0.0 | 1.6 | 0.00 | 0.43 | 0.43 | 81 | 1014.2 |
| 20260904142538 | 27 | 0 | 0.0 | 3.2 | 0.00 | 0.43 | 0.43 | 82 | 1014.1 |
| 20260904142037 | 27 | 0 | 0.0 | 3.2 | 0.00 | 0.43 | 0.43 | 84 | 1014.1 |
| 20260904141621 | 27 | 0 | 0.0 | 1.6 | 0.00 | 0.43 | 0.43 | 84 | 1014.2 |
| 20260904141037 | 27 | 0 | 0.0 | 3.2 | 0.00 | 0.43 | 0.43 | 84 | 1014.2 |
| 20260904140538 | 27 | 0 | 0.0 | 3.2 | 0.00 | 0.43 | 0.43 | 84 | 1014.0 |
| 20260904140106 | 26 | 0 | 0.0 | 1.6 | 0.00 | 0.43 | 0.43 | 85 | 1014.0 |
| 20260904135538 | 26 | 0 | 0.0 | 1.6 | 0.00 | 0.43 | 0.43 | 86 | 1014.1 |
| 20260904135037 | 26 | 0 | 0.0 | 3.2 | 0.00 | 0.43 | 0.43 | 86 | 1014.1 |
| 20260904134619 | 26 | 0 | 0.0 | 3.2 | 0.00 | 0.43 | 0.43 | 87 | 1014.1 |
| 20260904134037 | 25 | 9 | 0.0 | 3.2 | 0.00 | 0.43 | 0.43 | 88 | 1014.1 |
| 20260904133537 | 25 | 0 | 0.0 | 3.2 | 0.00 | 0.43 | 0.43 | 89 | 1014.2 |
| 20260904133115 | 25 | 0 | 0.0 | 3.2 | 0.00 | 0.43 | 0.43 | 90 | 1014.2 |
| 20260904132538 | 25 | 0 | 0.0 | 3.2 | 0.00 | 0.43 | 0.43 | 90 | 1014.3 |
| 20260904132035 | 25 | 0 | 0.0 | 6.4 | 0.00 | 0.43 | 0.43 | 92 | 1014.2 |
| 20260904131614 | 25 | 0 | 1.6 | 6.4 | 0.00 | 0.43 | 0.43 | 91 | 1014.1 |
| 20260904131040 | 25 | 0 | 0.0 | 3.2 | 0.00 | 0.43 | 0.43 | 92 | 1014.1 |
| 20260904130538 | 25 | 0 | 0.0 | 0.0 | 0.00 | 0.43 | 0.43 | 92 | 1014.2 |
| 20260904130054 | 24 | 0 | 0.0 | 3.2 | 0.00 | 0.43 | 0.43 | 93 | 1014.3 |
| 20260904125538 | 24 | 0 | 0.0 | 3.2 | 0.00 | 0.43 | 0.43 | 93 | 1014.2 |
| 20260904125042 | 24 | 338 | 0.0 | 3.2 | 0.00 | 0.43 | 0.43 | 94 | 1014.2 |
| 20260904124600 | 24 | 0 | 0.0 | 0.0 | 0.00 | 0.43 | 0.43 | 94 | 1014.1 |
| 20260904124038 | 24 | 0 | 0.0 | 0.0 | 0.00 | 0.43 | 0.43 | 95 | 1014.1 |
| 20260904123537 | 23 | 0 | 0.0 | 0.0 | 0.00 | 0.43 | 0.43 | 95 | 1013.9 |
| 20260904123111 | 23 | 0 | 0.0 | 0.0 | 0.00 | 0.43 | 0.43 | 95 | 1013.8 |
| 20260904122538 | 23 | 0 | 0.0 | 0.0 | 0.00 | 0.43 | 0.43 | 95 | 1013.7 |
| 20260904122038 | 23 | 0 | 0.0 | 0.0 | 0.00 | 0.43 | 0.43 | 95 | 1013.6 |
| 20260904121559 | 23 | 0 | 0.0 | 0.0 | 0.00 | 0.43 | 0.43 | 96 | 1013.6 |
| 20260904121038 | 23 | 0 | 0.0 | 0.0 | 0.00 | 0.43 | 0.43 | 96 | 1013.5 |
| 20260904120538 | 23 | 0 | 0.0 | 0.0 | 0.00 | 0.43 | 0.43 | 97 | 1013.7 |
| 20260904120053 | 23 | 0 | 0.0 | 0.0 | 0.00 | 0.43 | 0.43 | 97 | 1013.6 |
| 20260904115538 | 22 | 0 | 0.0 | 0.0 | 0.00 | 0.43 | 0.43 | 97 | 1013.7 |
| 20260904115038 | 22 | 0 | 0.0 | 0.0 | 0.00 | 0.43 | 0.43 | 97 | 1013.6 |
| 20260904114600 | 22 | 0 | 0.0 | 0.0 | 0.00 | 0.43 | 0.43 | 97 | 1013.6 |
| 20260904114038 | 22 | 0 | 0.0 | 0.0 | 0.00 | 0.43 | 0.43 | 98 | 1013.6 |
| 20260904113538 | 22 | 0 | 0.0 | 0.0 | 0.00 | 0.43 | 0.43 | 98 | 1013.6 |
| 20260904113102 | 22 | 0 | 0.0 | 0.0 | 0.00 | 0.43 | 0.43 | 98 | 1013.5 |
| 20260904112538 | 22 | 0 | 0.0 | 0.0 | 0.00 | 0.43 | 0.43 | 98 | 1013.5 |
| 20260904112037 | 22 | 0 | 0.0 | 0.0 | 0.00 | 0.43 | 0.43 | 97 | 1013.6 |
| 20260904111602 | 22 | 0 | 0.0 | 0.0 | 0.00 | 0.43 | 0.43 | 97 | 1013.5 |
| 20260904111038 | 22 | 0 | 0.0 | 0.0 | 0.00 | 0.43 | 0.43 | 97 | 1013.5 |
| 20260904110538 | 22 | 0 | 0.0 | 0.0 | 0.00 | 0.43 | 0.43 | 97 | 1013.5 |
| 20260904110057 | 22 | 0 | 0.0 | 0.0 | 0.00 | 0.43 | 0.43 | 97 | 1013.4 |
| 20260904105538 | 21 | 0 | 0.0 | 0.0 | 0.00 | 0.43 | 0.43 | 97 | 1013.4 |
| 20260904105038 | 21 | 0 | 0.0 | 0.0 | 0.00 | 0.43 | 0.43 | 97 | 1013.2 |
| 20260904104603 | 21 | 0 | 0.0 | 0.0 | 0.00 | 0.43 | 0.43 | 97 | 1013.3 |
| 20260904104037 | 21 | 0 | 0.0 | 0.0 | 0.00 | 0.43 | 0.43 | 97 | 1013.3 |
| 20260904103538 | 21 | 0 | 0.0 | 0.0 | 0.00 | 0.43 | 0.43 | 97 | 1013.3 |
| 20260904103105 | 21 | 0 | 0.0 | 0.0 | 0.00 | 0.43 | 0.43 | 97 | 1013.2 |
| 20260904102538 | 21 | 0 | 0.0 | 0.0 | 0.00 | 0.43 | 0.43 | 97 | 1013.2 |
| 20260904102038 | 21 | 0 | 0.0 | 0.0 | 0.00 | 0.43 | 0.43 | 97 | 1013.1 |
| 20260904101600 | 21 | 0 | 0.0 | 0.0 | 0.00 | 0.43 | 0.43 | 97 | 1013.1 |
| 20260904101038 | 21 | 0 | 0.0 | 0.0 | 0.00 | 0.43 | 0.43 | 97 | 1013.1 |
| 20260904100538 | 22 | 0 | 0.0 | 0.0 | 0.00 | 0.43 | 0.43 | 97 | 1013.1 |
| 20260904100105 | 21 | 0 | 0.0 | 0.0 | 0.00 | 0.43 | 0.43 | 97 | 1013.0 |
| 20260904095538 | 22 | 0 | 0.0 | 0.0 | 0.00 | 0.43 | 0.43 | 97 | 1013.0 |
| 20260904095039 | 22 | 0 | 0.0 | 0.0 | 0.00 | 0.43 | 0.43 | 97 | 1013.0 |
| 20260904094603 | 22 | 0 | 0.0 | 0.0 | 0.00 | 0.43 | 0.43 | 96 | 1013.0 |
| 20260904094038 | 22 | 0 | 0.0 | 0.0 | 0.00 | 0.43 | 0.43 | 97 | 1012.9 |
| 20260904093538 | 22 | 0 | 0.0 | 0.0 | 0.00 | 0.43 | 0.43 | 97 | 1013.0 |
| 20260904093102 | 22 | 0 | 0.0 | 0.0 | 0.00 | 0.43 | 0.43 | 96 | 1013.1 |
| 20260904092537 | 22 | 0 | 0.0 | 0.0 | 0.00 | 0.43 | 0.43 | 96 | 1013.1 |
| 20260904092037 | 22 | 0 | 0.0 | 0.0 | 0.00 | 0.43 | 0.43 | 96 | 1013.1 |
| 20260904091555 | 22 | 0 | 0.0 | 0.0 | 0.00 | 0.43 | 0.43 | 96 | 1013.1 |
| 20260904091037 | 22 | 0 | 0.0 | 0.0 | 0.00 | 0.43 | 0.43 | 96 | 1013.1 |
| 20260904090537 | 22 | 0 | 0.0 | 0.0 | 0.00 | 0.43 | 0.43 | 96 | 1013.2 |
| 20260904085537 | 22 | 0 | 0.0 | 0.0 | 0.00 | 0.43 | 0.43 | 96 | 1013.2 |
| 20260904085041 | 22 | 0 | 0.0 | 0.0 | 0.00 | 0.43 | 0.43 | 97 | 1013.0 |
| 20260904084601 | 22 | 0 | 0.0 | 0.0 | 0.00 | 0.43 | 0.43 | 96 | 1013.2 |
| 20260904084037 | 22 | 0 | 0.0 | 0.0 | 0.00 | 0.43 | 0.43 | 96 | 1013.1 |
| 20260904083537 | 22 | 0 | 0.0 | 0.0 | 0.00 | 0.43 | 0.43 | 96 | 1013.1 |
| 20260904083056 | 22 | 0 | 0.0 | 0.0 | 0.00 | 0.43 | 0.43 | 96 | 1013.1 |
| 20260904082538 | 22 | 0 | 0.0 | 0.0 | 0.00 | 0.43 | 0.43 | 97 | 1013.2 |
| 20260904082034 | 22 | 0 | 0.0 | 0.0 | 0.00 | 0.43 | 0.43 | 97 | 1013.2 |
| 20260904081601 | 22 | 0 | 0.0 | 0.0 | 0.00 | 0.43 | 0.43 | 97 | 1013.2 |
| 20260904081038 | 22 | 0 | 0.0 | 0.0 | 0.00 | 0.43 | 0.43 | 96 | 1013.2 |
| 20260904080538 | 22 | 0 | 0.0 | 0.0 | 0.00 | 0.43 | 0.43 | 96 | 1013.1 |
| 20260904080107 | 22 | 0 | 0.0 | 0.0 | 0.00 | 0.43 | 0.43 | 96 | 1013.3 |
| 20260904075538 | 22 | 0 | 0.0 | 0.0 | 0.00 | 0.43 | 0.43 | 96 | 1013.3 |
| 20260904075038 | 22 | 0 | 0.0 | 0.0 | 0.00 | 0.43 | 0.43 | 96 | 1013.1 |
| 20260904074556 | 22 | 0 | 0.0 | 0.0 | 0.00 | 0.43 | 0.43 | 96 | 1012.9 |
| 20260904074035 | 22 | 0 | 0.0 | 0.0 | 0.00 | 0.43 | 0.43 | 96 | 1013.0 |
| 20260904073537 | 22 | 0 | 0.0 | 0.0 | 0.00 | 0.43 | 0.43 | 96 | 1012.8 |
| 20260904073103 | 22 | 0 | 0.0 | 0.0 | 0.00 | 0.43 | 0.43 | 96 | 1012.9 |
| 20260904072537 | 22 | 0 | 0.0 | 0.0 | 0.00 | 0.43 | 0.43 | 96 | 1012.8 |
| 20260904072038 | 22 | 0 | 0.0 | 0.0 | 0.00 | 0.43 | 0.43 | 96 | 1012.8 |
| 20260904071602 | 22 | 0 | 0.0 | 0.0 | 0.00 | 0.43 | 0.43 | 96 | 1012.7 |
| 20260904071041 | 22 | 0 | 0.0 | 0.0 | 0.00 | 0.43 | 0.43 | 95 | 1012.6 |
| 20260904070540 | 22 | 0 | 0.0 | 0.0 | 0.00 | 0.43 | 0.43 | 95 | 1012.6 |
| 20260904065537 | 22 | 0 | 0.0 | 1.6 | 0.00 | 0.43 | 0.43 | 95 | 1012.2 |
| 20260904065037 | 22 | 0 | 0.0 | 1.6 | 0.00 | 0.43 | 0.43 | 95 | 1012.3 |
| 20260904064621 | 22 | 0 | 0.0 | 1.6 | 0.00 | 0.43 | 0.43 | 95 | 1012.4 |
| 20260904064041 | 22 | 0 | 0.0 | 0.0 | 0.00 | 0.43 | 0.43 | 95 | 1012.4 |
| 20260904063538 | 22 | 0 | 0.0 | 0.0 | 0.00 | 0.43 | 0.43 | 95 | 1012.5 |
| 20260904063103 | 22 | 0 | 0.0 | 0.0 | 0.00 | 0.43 | 0.43 | 95 | 1012.7 |
| 20260904062537 | 22 | 0 | 0.0 | 0.0 | 0.00 | 0.43 | 0.43 | 94 | 1012.4 |
| 20260904062037 | 22 | 0 | 0.0 | 0.0 | 0.00 | 0.43 | 0.43 | 94 | 1012.5 |
| 20260904061601 | 22 | 0 | 0.0 | 0.0 | 0.00 | 0.43 | 0.43 | 95 | 1012.6 |
| 20260904061037 | 22 | 0 | 0.0 | 3.2 | 0.03 | 0.43 | 0.43 | 94 | 1012.8 |
| 20260904060537 | 22 | 0 | 0.0 | 6.4 | 0.33 | 0.43 | 0.43 | 94 | 1012.9 |
| 20260904060058 | 22 | 78 | 0.0 | 6.4 | 0.43 | 0.43 | 0.43 | 94 | 1012.7 |
| 20260904055537 | 22 | 66 | 0.0 | 6.4 | 0.43 | 0.43 | 0.43 | 94 | 1012.8 |
| 20260904055038 | 22 | 111 | 1.6 | 6.4 | 0.43 | 0.43 | 0.43 | 94 | 1012.9 |
| 20260904054603 | 22 | 0 | 0.0 | 4.8 | 0.43 | 0.43 | 0.43 | 94 | 1013.4 |
| 20260904054034 | 23 | 0 | 0.0 | 0.0 | 0.43 | 0.43 | 0.43 | 94 | 1013.5 |
| 20260904053537 | 23 | 0 | 0.0 | 0.0 | 0.43 | 0.43 | 0.43 | 93 | 1013.7 |
| 20260904053100 | 23 | 0 | 0.0 | 0.0 | 0.43 | 0.43 | 0.43 | 92 | 1013.9 |
| 20260904052541 | 23 | 0 | 0.0 | 1.6 | 0.43 | 0.43 | 0.43 | 92 | 1013.7 |
| 20260904052038 | 23 | 0 | 0.0 | 3.2 | 0.43 | 0.43 | 0.43 | 91 | 1014.2 |
| 20260904051605 | 23 | 0 | 0.0 | 4.8 | 0.43 | 0.43 | 0.43 | 90 | 1015.0 |
| 20260904051037 | 24 | 0 | 0.0 | 14.5 | 0.38 | 0.38 | 0.38 | 88 | 1015.0 |
| 20260904050537 | 25 | 273 | 1.6 | 14.5 | 0.10 | 0.10 | 0.10 | 86 | 1015.6 |
| 20260904050126 | 25 | 339 | 4.8 | 14.5 | 0.00 | 0.00 | 0.00 | 83 | 1015.4 |
| 20260904045535 | 25 | 360 | 3.2 | 9.7 | 0.00 | 0.00 | 0.00 | 81 | 1015.6 |
| 20260904045038 | 26 | 276 | 3.2 | 12.9 | 0.00 | 0.00 | 0.00 | 81 | 1015.9 |
| 20260904044603 | 26 | 342 | 4.8 | 16.1 | 0.00 | 0.00 | 0.00 | 81 | 1015.4 |
| 20260904044037 | 26 | 338 | 8.0 | 16.1 | 0.00 | 0.00 | 0.00 | 82 | 1015.4 |
| 20260904043537 | 26 | 343 | 8.0 | 16.1 | 0.00 | 0.00 | 0.00 | 86 | 1015.3 |
| 20260904043103 | 26 | 342 | 3.2 | 6.4 | 0.00 | 0.00 | 0.00 | 92 | 1014.8 |
| 20260904042535 | 26 | 316 | 0.0 | 4.8 | 0.00 | 0.00 | 0.00 | 94 | 1014.2 |
| 20260904042038 | 26 | 0 | 0.0 | 0.0 | 0.00 | 0.00 | 0.00 | 94 | 1013.4 |
| 20260904041615 | 26 | 0 | 0.0 | 0.0 | 0.00 | 0.00 | 0.00 | 94 | 1013.5 |
| 20260904041038 | 26 | 0 | 0.0 | 0.0 | 0.00 | 0.00 | 0.00 | 94 | 1013.6 |
| 20260904040538 | 26 | 0 | 0.0 | 0.0 | 0.00 | 0.00 | 0.00 | 94 | 1013.6 |
| 20260904040105 | 26 | 0 | 0.0 | 0.0 | 0.00 | 0.00 | 0.00 | 94 | 1013.6 |
| 20260904035538 | 26 | 0 | 0.0 | 0.0 | 0.00 | 0.00 | 0.00 | 94 | 1013.5 |
| 20260904035035 | 26 | 0 | 0.0 | 0.0 | 0.00 | 0.00 | 0.00 | 94 | 1013.4 |
| 20260904034608 | 26 | 0 | 0.0 | 0.0 | 0.00 | 0.00 | 0.00 | 94 | 1013.2 |
| 20260904034037 | 26 | 0 | 0.0 | 0.0 | 0.00 | 0.00 | 0.00 | 94 | 1013.2 |
| 20260904033539 | 26 | 0 | 0.0 | 0.0 | 0.00 | 0.00 | 0.00 | 94 | 1013.1 |
| 20260904033056 | 26 | 0 | 0.0 | 0.0 | 0.00 | 0.00 | 0.00 | 94 | 1013.1 |
| 20260904032541 | 26 | 0 | 0.0 | 0.0 | 0.00 | 0.00 | 0.00 | 94 | 1012.9 |
| 20260904032036 | 26 | 0 | 0.0 | 0.0 | 0.00 | 0.00 | 0.00 | 94 | 1012.9 |
| 20260904031604 | 26 | 0 | 0.0 | 0.0 | 0.00 | 0.00 | 0.00 | 94 | 1012.8 |
| 20260904031038 | 26 | 0 | 0.0 | 0.0 | 0.00 | 0.00 | 0.00 | 94 | 1012.7 |
| 20260904030538 | 26 | 0 | 0.0 | 0.0 | 0.00 | 0.00 | 0.00 | 94 | 1012.9 |
| 20260904025538 | 27 | 0 | 0.0 | 0.0 | 0.00 | 0.00 | 0.00 | 94 | 1013.0 |
| 20260904025038 | 27 | 0 | 0.0 | 0.0 | 0.00 | 0.00 | 0.00 | 94 | 1013.0 |
| 20260904024600 | 27 | 0 | 0.0 | 0.0 | 0.00 | 0.00 | 0.00 | 94 | 1012.9 |
| 20260904024035 | 27 | 0 | 0.0 | 0.0 | 0.00 | 0.00 | 0.00 | 93 | 1012.9 |
| 20260904023541 | 27 | 0 | 0.0 | 0.0 | 0.00 | 0.00 | 0.00 | 93 | 1013.1 |
| 20260904023102 | 27 | 0 | 0.0 | 0.0 | 0.00 | 0.00 | 0.00 | 93 | 1013.0 |
| 20260904022538 | 27 | 0 | 0.0 | 0.0 | 0.00 | 0.00 | 0.00 | 93 | 1013.1 |
| 20260904022039 | 27 | 0 | 0.0 | 0.0 | 0.00 | 0.00 | 0.00 | 93 | 1013.1 |
| 20260904021602 | 27 | 0 | 0.0 | 0.0 | 0.00 | 0.00 | 0.00 | 93 | 1013.0 |
| 20260904021037 | 27 | 0 | 0.0 | 0.0 | 0.00 | 0.00 | 0.00 | 93 | 1013.2 |
| 20260904020535 | 27 | 0 | 0.0 | 0.0 | 0.00 | 0.00 | 0.00 | 93 | 1013.4 |
| 20260904020106 | 27 | 0 | 0.0 | 0.0 | 0.00 | 0.00 | 0.00 | 93 | 1013.4 |
| 20260904015537 | 27 | 0 | 0.0 | 0.0 | 0.00 | 0.00 | 0.00 | 93 | 1013.4 |
| 20260904015038 | 27 | 0 | 0.0 | 0.0 | 0.00 | 0.00 | 0.00 | 92 | 1013.3 |
| 20260904014631 | 27 | 0 | 0.0 | 0.0 | 0.00 | 0.00 | 0.00 | 92 | 1013.2 |
| 20260904014038 | 27 | 0 | 0.0 | 0.0 | 0.00 | 0.00 | 0.00 | 92 | 1013.1 |
| 20260904013541 | 27 | 0 | 0.0 | 0.0 | 0.00 | 0.00 | 0.00 | 92 | 1013.1 |
| 20260904013103 | 27 | 0 | 0.0 | 0.0 | 0.00 | 0.00 | 0.00 | 92 | 1013.3 |
| 20260904012538 | 27 | 0 | 0.0 | 0.0 | 0.00 | 0.00 | 0.00 | 92 | 1013.2 |
| 20260904012039 | 27 | 0 | 0.0 | 0.0 | 0.00 | 0.00 | 0.00 | 92 | 1013.3 |
| 20260904011609 | 27 | 0 | 0.0 | 0.0 | 0.00 | 0.00 | 0.00 | 92 | 1013.3 |
| 20260904011037 | 27 | 0 | 0.0 | 0.0 | 0.00 | 0.00 | 0.00 | 91 | 1013.4 |
| 20260904010538 | 27 | 0 | 0.0 | 0.0 | 0.00 | 0.00 | 0.00 | 90 | 1013.5 |
| 20260904010105 | 27 | 0 | 0.0 | 0.0 | 0.00 | 0.00 | 0.00 | 90 | 1013.6 |
| 20260904005535 | 27 | 0 | 0.0 | 0.0 | 0.00 | 0.00 | 0.00 | 90 | 1013.7 |
| 20260904005037 | 27 | 0 | 0.0 | 0.0 | 0.00 | 0.00 | 0.00 | 89 | 1013.8 |
| 20260904004605 | 27 | 0 | 0.0 | 0.0 | 0.00 | 0.00 | 0.00 | 89 | 1013.9 |
| 20260904004038 | 27 | 0 | 0.0 | 0.0 | 0.00 | 0.00 | 0.00 | 89 | 1013.9 |
| 20260904003542 | 28 | 0 | 0.0 | 0.0 | 0.00 | 0.00 | 0.00 | 89 | 1014.0 |
| 20260904003103 | 28 | 0 | 0.0 | 0.0 | 0.00 | 0.00 | 0.00 | 88 | 1013.9 |
| 20260904002538 | 28 | 0 | 0.0 | 0.0 | 0.00 | 0.00 | 0.00 | 87 | 1013.8 |
| 20260904002038 | 28 | 0 | 0.0 | 0.0 | 0.00 | 0.00 | 0.00 | 86 | 1013.8 |
| 20260904001556 | 28 | 0 | 0.0 | 0.0 | 0.00 | 0.00 | 0.00 | 86 | 1013.8 |
| 20260904001037 | 28 | 0 | 0.0 | 0.0 | 0.00 | 0.00 | 0.00 | 85 | 1013.8 |
| 20260904000535 | 28 | 0 | 0.0 | 0.0 | 0.00 | 0.00 | 0.00 | 85 | 1013.7 |
| 20260903235537 | 29 | 0 | 0.0 | 0.0 | 0.00 | 0.00 | 0.00 | 83 | 1013.5 |
| 20260903235041 | 30 | 0 | 0.0 | 0.0 | 0.00 | 0.00 | 0.00 | 81 | 1013.5 |
| 20260903234600 | 30 | 0 | 0.0 | 0.0 | 0.00 | 0.00 | 0.00 | 81 | 1013.3 |
| 20260903234038 | 30 | 0 | 0.0 | 0.0 | 0.00 | 0.00 | 0.00 | 81 | 1013.2 |
| 20260903233538 | 30 | 0 | 0.0 | 0.0 | 0.00 | 0.00 | 0.00 | 80 | 1013.2 |
| 20260903233101 | 31 | 0 | 0.0 | 0.0 | 0.00 | 0.00 | 0.00 | 78 | 1013.4 |
| 20260903232538 | 31 | 0 | 0.0 | 0.0 | 0.00 | 0.00 | 0.00 | 76 | 1013.3 |
| 20260903232040 | 31 | 0 | 0.0 | 3.2 | 0.00 | 0.00 | 0.00 | 75 | 1013.2 |
| 20260903231612 | 31 | 0 | 0.0 | 3.2 | 0.00 | 0.00 | 0.00 | 75 | 1013.3 |
| 20260903231037 | 31 | 0 | 0.0 | 6.4 | 0.00 | 0.00 | 0.00 | 74 | 1013.3 |
| 20260903230537 | 31 | 0 | 0.0 | 6.4 | 0.00 | 0.00 | 0.00 | 74 | 1013.2 |
| 20260903230112 | 31 | 0 | 0.0 | 3.2 | 0.00 | 0.00 | 0.00 | 74 | 1013.2 |
| 20260903225538 | 31 | 0 | 0.0 | 0.0 | 0.00 | 0.00 | 0.00 | 74 | 1013.1 |
| 20260903225038 | 31 | 0 | 0.0 | 0.0 | 0.00 | 0.00 | 0.00 | 74 | 1013.1 |
| 20260903224603 | 31 | 0 | 0.0 | 0.0 | 0.00 | 0.00 | 0.00 | 73 | 1013.0 |
| 20260903224042 | 31 | 0 | 0.0 | 3.2 | 0.00 | 0.00 | 0.00 | 73 | 1013.0 |
| 20260903223538 | 32 | 0 | 0.0 | 4.8 | 0.00 | 0.00 | 0.00 | 72 | 1013.0 |
| 20260903223114 | 32 | 0 | 0.0 | 4.8 | 0.00 | 0.00 | 0.00 | 71 | 1012.9 |
| 20260903222538 | 32 | 0 | 0.0 | 4.8 | 0.00 | 0.00 | 0.00 | 71 | 1012.8 |
| 20260903222038 | 32 | 0 | 0.0 | 6.4 | 0.00 | 0.00 | 0.00 | 71 | 1012.7 |
| 20260903221600 | 32 | 277 | 1.6 | 6.4 | 0.00 | 0.00 | 0.00 | 71 | 1012.8 |
| 20260903221038 | 32 | 0 | 0.0 | 6.4 | 0.00 | 0.00 | 0.00 | 71 | 1012.8 |
| 20260903220539 | 32 | 226 | 1.6 | 6.4 | 0.00 | 0.00 | 0.00 | 71 | 1012.9 |
| 20260903220107 | 32 | 237 | 0.0 | 4.8 | 0.00 | 0.00 | 0.00 | 70 | 1012.9 |
| 20260903215541 | 32 | 192 | 0.0 | 4.8 | 0.00 | 0.00 | 0.00 | 70 | 1012.9 |
| 20260903215039 | 32 | 0 | 0.0 | 9.7 | 0.00 | 0.00 | 0.00 | 70 | 1012.9 |